Regional Weather Roundup
Issued by NWS Wakefield, VA

Home | Current Version | Previous Version | Text Only | Print | Product List | Glossary On
Versions: 1 2 3 4 5 6 7 8 9 10 11 12 13 14 15 16 17 18 19 20 21 22 23 24 25 26 27 28 29 30 31 32 33 34 35 36 37 38 39 40 41 42 43 44 45 46 47 48
000
ASUS41 KAKQ 040810
RWRAKQ

REGIONAL WEATHER ROUNDUP
NATIONAL WEATHER SERVICE WAKEFIELD VA
300 AM EST WED MAR 04 2015

Note: "fair" indicates few or no clouds below 12,000 feet with no
significant weather and/or obstructions to visibility. * = Denotes
station may not report precipitation (e.g., rain,snow,etc.),
thunder or fog.

VAZ042-051-052>054-056-040900-
NORTHERN VIRGINIA

CITY           SKY/WX    TMP DP  RH WIND       PRES   REMARKS
WASH NATIONAL  CLOUDY    42  35  76 W3        29.86R
DULLES         CLOUDY    36  32  85 NW3       29.84F
FORT BELVOIR   CLOUDY    41  36  81 VRB1      29.85R
QUANTICO       CLOUDY    42  36  79 SW8       29.84F
FREDERICKSBRG* CLOUDY    44  39  85 SW17G23   29.83F
STAFFORD*      CLOUDY    41  36  81 SW7       29.87F
WARRENTON      CLOUDY    40  39  95 SW9       29.82S
CULPEPER*      CLOUDY    39  37  93 SW5       29.83F
MANASSAS*      CLOUDY    39  36  87 NW5       29.84R
LEESBURG*      LGT RAIN  37  36  93 S5        29.84F
WINCHESTER     DRIZZLE   41  36  81 S6        29.79F
FRONT ROYAL*   CLOUDY    41  37  87 E6        29.82R
LURAY*         CLOUDY    50  45  81 SW8       29.79S
$$

VAZ048-049-060>072-079>083-040900-
CENTRAL AND SOUTH CENTRAL VIRGINIA

CITY           SKY/WX    TMP DP  RH WIND       PRES   REMARKS
RICHMOND       CLOUDY    44  41  89 SW9       29.89F
CHESTERFIELD*  CLOUDY    46  36  66 SW8G16    29.91F
PETERSBURG*    CLOUDY    45  44  96 SW12      29.92F
HANOVER        CLOUDY    44  41  89 SW10      29.89F
TAPPAHANNOCK*  CLOUDY    42  39  87 S7        29.88F
QUINTON*       CLOUDY    42  41  97 S3        29.89F
CHARLOTTSVILLE CLOUDY    38  35  89 S14       29.83F
GORDONSVILLE*  CLOUDY    38  35  90 SW12      29.83F
ORANGE*        CLOUDY    39  36  87 S13       29.84F
LOUISA*        CLOUDY    41  37  87 SW10G17   29.84F
BUMPASS*       CLOUDY    40  37  91 SW8       29.85F
FARMVILLE*     CLOUDY    44  44 100 SW9G17    29.88F
CREWE*         CLOUDY    45  43  92 SW12G22   29.89F
FORT PICKETT*  CLOUDY    43  42  98 SW14G23   29.91F
CHASE CITY*    CLOUDY    42  42 100 SW5       29.94F
CLARKSVILLE*   CLOUDY    41  41 100 SW3       29.95F
SOUTH HILL*    CLOUDY    42  41  99 SW9       30.01F
LAWRENCEVILLE* CLOUDY    41  41 100 S7        29.94F
EMPORIA*       CLOUDY    37  37 100 S5        29.98F FOG
$$

VAZ088>098-040900-
SOUTHEAST VIRGINIA

CITY           SKY/WX    TMP DP  RH WIND       PRES   REMARKS
NORFOLK        CLOUDY    45  42  89 SW17G26   29.94F
VIRGINIA BEACH CLOUDY    49  46  90 SW15      29.95F
NORFOLK NAVAL  CLOUDY    46  41  82 SW9       29.96F FOG
WEST POINT*    CLOUDY    45  43  91 SW8       29.92F
SALUDA*        CLOUDY    42  41  95 SW8       29.90F
NEWPORT NEWS   CLOUDY    43  39  86 SW14      29.94F
LANGLEY AFB    CLOUDY    41  41 100 SW14      29.93F
FORT EUSTIS    CLOUDY    41  41 100 VRB5      29.92F
WILLIAMSBURG*  CLOUDY    46  45  93 SW15      29.94F
HR EXEC AP*    CLOUDY    43  39  87 SW8       29.98F
FRANKLIN*      CLOUDY    40  40  98 SW7       29.98F FOG
WAKEFIELD      CLOUDY    43  40  89 S8G17     29.94F
$$

VAZ020-022-025-037-045-040900-
WEST CENTRAL AND SOUTHWEST VIRGINIA

CITY           SKY/WX    TMP DP  RH WIND       PRES   REMARKS
STAUNTON*      DRIZZLE   43  40  90 S8        29.82F
WAYNESBORO*    CLOUDY    46  44  93 W6        29.80F
HOT SPRINGS VA RAIN      50  50 100 W26G36    29.81F VSB<1/4
LYNCHBURG      CLOUDY    39  39 100 SW8       29.90F FOG
DANVILLE       CLOUDY    42  39  89 SW9       29.96F
SOUTH BOSTON*  CLOUDY    41  40  94 SW6       29.95F
MARTINSVILLE   CLOUDY    41  41 100 SW6       29.98F FOG
ROANOKE        MOCLDY    37  35  92 CALM      29.91F FOG
BLACKSBURG     CLOUDY    39  38  97 CALM      29.93F FOG
DUBLIN*        CLOUDY    42  42 100 CALM      29.91F FOG
MARION*        FOG       46  45  96 SW7       29.93F VSB 1/4
HILLSVILLE*    PTCLDY    47  46  98 S10       29.92F
RICHLANDS*     CLOUDY    51  49  94 W15G22    29.90F FOG
WISE*          RAIN      50  50 100 SW15      29.91S
ABINGDON*      CLOUDY    45  45 100 CALM      29.91F FOG
$$

MDZ021>025-VAZ099-100-040900-
SOUTHERN MARYLAND AND THE DELMARVA PENINSULA

CITY           SKY/WX    TMP DP  RH WIND       PRES   REMARKS
PATUXENT RIVER MOCLDY    44  40  85 SW18G24   29.82F
BAY BRIDGE APT LGT RAIN  39  37  93 W5        29.85R
LEONARDTOWN    CLOUDY    43  37  81 SW16G22   29.83F
DOVER          LGT RAIN  41  41 100 SW13G23   29.79F
GEORGETOWN     CLOUDY    43  41  93 W10G28    29.82F
EASTON         CLOUDY    44  44 100 SW9G16    29.86S
CAMBRIDGE      CLOUDY    41  37  87 S8        29.82S
SALISBURY      CLOUDY    44  40  85 SW16      29.84F
OCEAN CITY     LGT RAIN  43  42  97 SW20G26   29.85F FOG
WALLOPS ISLAND CLOUDY    46  45  96 W17G26    29.88F
ACCOMACK*      CLOUDY    41  39  93 SW14      29.90F
$$

NCZ012>017-030>032-040900-
NORTH CENTRAL AND EASTERN NORTH CAROLINA

CITY           SKY/WX    TMP DP  RH WIND       PRES   REMARKS
ROANOKE RAPIDS FOG       41  41 100 S12       29.98F VSB 1
RALEIGH        FOG       39  37  93 SW10      30.01F VSB 1/8
ELIZABETH CITY FOG       47  46  97 SW10      29.99F VSB 1/2
AHOSKIE*       FOG       40  39  99 SW3       30.01F VSB 1/2
EDENTON*       FOG       45  45  99 SW7       30.02F VSB 1/2
CURRITUCK*     FOG       48  47  95 S8        29.98F VSB 1
KILL DEVIL HLS CLOUDY    60  60 100 SW12G21   29.99S FOG
MANTEO         FOG       55  55 100 SW16      30.00F VSB 3/4
CAPE HATTERAS  FOG       54  54 100 SW10      30.04F VSB 1/2
TARBORO*       CLOUDY    41  40  95 SW5       30.03F FOG
GOLDSBORO      CLOUDY    41  41 100 VRB3      30.03F FOG
WASHINGTON     FOG       45  45  99 W5        30.03F VSB 1/4
GREENVILLE     FOG       43  41  93 SW8       30.06F VSB 1
NEW BERN       CLOUDY    58  56  93 SW12      30.05F FOG
WILMINGTON     FOG       48  47  96 CALM      30.08F VSB 1/4
$$

VAZ048-040900-
ELSEWHERE

CITY           SKY/WX    TMP DP  RH WIND       PRES   REMARKS
HARRISBURG PA  CLOUDY    33  30  88 CALM      29.77F FOG
BALTIMORE      CLOUDY    37  34  87 W6        29.84R
ANNAPOLIS      LGT RAIN  39  35  86 NW7       29.84R
ANDREWS AFB    LGT RAIN  41  37  87 W10       29.82R
PHILADELPHIA   LGT RAIN  34  32  92 SW10      29.82F FOG
HENDERSON NC   CLOUDY    41  40  95 S13       29.96F FOG
GREENSBORO     FOG       41  40  96 SW9       29.98F VSB 1/2
ROCKY MOUNT    FOG       41  40  96 S8        30.01F VSB 1/2
$$

VAZ100-040900-
MARINE

STATION/POSITION TIME  TEMP    WIND        PRES    WAVE   SWELL
                       AIR SEA DIR/SP/G            HT/PER HT/PER
                 (UTC) (F)     (DEG/KT/KT) (MB)    (FT/S) (FT/S)
BRANDYWINE LGT   0800   40 31  240/ 20/ 22 1009.1S
CAPE MAY NJ      0800   37 33  230/  8/ 11 1009.2S
LEWES DE         0800   46 30  240/ 11/ 20 1009.0R
15NM E FENWICK I 0800   37 36              1010.0F   3/ 6
OCEAN-CITY-INLET 0800   44 33  250/ 19/ 26 1010.3F
WACHAPREAGUE VA  0800   43 36  240/ 11/ 14 1012.3F
THOMAS POINT MD  0800   38 31  300/  4/  4 1011.9R
COVE POINT MD    0800   44     240/ 20/ 23 1009.4F
SOLOMONS ISLAND  0800      33                N/A
BISHOPS HEAD MD  0800   37 33  200/  9/ 12 1010.1F
CAMBRIDGE MD     0800   41 32  210/  5/  8 1009.9R
LEWISETTA VA     0800   42 33  230/ 13/ 16 1010.6F
RAPPAHANNOCK LGT 0800          200/ 15/ 16 1013.0F
STINGRAY PT      0800   39     240/  8/ 10   N/A
YORK RVR RNG VA  0800   40     220/ 14/ 20 1012.2F
YORKTOWN VA      0800   42 34  220/ 18/ 24 1012.4F
DOMINION TERM VA 0800   40     220/ 14/ 18 1013.9F
KIPTOPEKE VA     0800      38  240/  9/ 12   N/A
CHES BAY BRIDGE  0800   44 34  210/ 17/ 20 1013.4F
CAPE HENRY VA    0800   47     210/ 12/ 18 1012.7F
CHESAPEAKE LGHT  0700   44     220/ 26/ 27 1014.6F
WILLOUBY STN VA  0800   40     220/ 12/ 13 1014.3F
S CRANEY ISL VA  0800          220/ 11/ 17 1014.0F
CAPE HENRY BUOY  0800      35                N/A     3/ 5
1ST LANDING BUOY 0800   40     240/ 14/ 14 1014.1F
OFFSHORE WE BUOY 0800      36                N/A     4/ 6   2/10
64NM E OF VA BCH 0800   57 56  220/ 21/ 25 1014.1F   6/ 6   2/ 9
DUCK PIER NC     0800   47 35  230/  8/ 10 1014.7F
44100 DUCK FRF   0700      37                N/A     4/ 5
44056 DUCK FRF   0700      35                N/A     4/ 6
OREGON INLET NC  0800   49 42  210/ 15/ 16 1016.3F
HATTERAS NC      0800   55 44  210/ 10/ 12 1017.5F
CAPE LOOKOUT NC  0800   59     230/ 10/ 13 1018.0F
$$


USA.gov is the U.S. government's official web portal to all federal, state and local government web resources and services.